[[{"header":{"parameterUnit":"m.s-1","parameterCategory":1,"la1":30.2992,"la2":30.254,"lo1":-89.0895,"lo2":-89.0443,"dy":0.0025,"dx":0.0025,"nx":19,"ny":19,"refTime":"2026-05-09T21:00:00:Z","depth":0,"parameterNumber":2,"parameterNumberName":"U-component_of_WINDS"},"data":[0,0,0,-1.467,-1.467,-1.4679,-1.4679,-1.4685,-1.4685,0,0,0,0,0,0,0,0,0,0,0,-1.4667,-1.4667,-1.467,-1.467,-1.4679,-1.4679,-1.4685,-1.4685,0,0,0,0,0,0,0,0,0,0,0,-1.4667,-1.4667,-1.4667,-1.4671,-1.4679,-1.4679,-1.4685,-1.468,0,0,0,0,0,0,0,0,0,0,-1.4673,-1.4669,-1.4667,-1.4667,-1.4671,-1.4679,-1.4679,-1.468,-1.468,-1.468,0,-1.4681,0,-1.4683,-1.4686,-1.4686,0,0,0,-1.4671,-1.4668,-1.4672,-1.4667,-1.4671,-1.4679,-1.4675,-1.468,-1.4681,-1.4681,-1.4681,-1.4681,-1.4683,-1.4686,-1.4686,-1.4683,-1.4683,0,0,-1.4671,-1.4667,-1.4671,-1.4672,-1.4672,-1.4675,-1.4675,-1.4681,-1.468,-1.4681,-1.4681,-1.4683,-1.4686,-1.4686,-1.4683,-1.4683,0,0,0,-1.4669,-1.4667,-1.467,-1.4672,-1.4673,-1.4675,-1.4676,-1.468,-1.4681,-1.4681,-1.4683,-1.4686,-1.4686,-1.4684,-1.4683,-1.4679,0,0,0,-1.4669,-1.4666,-1.467,-1.4668,-1.4673,-1.4677,-1.4675,-1.4681,-1.4682,-1.4683,-1.4686,-1.4686,-1.4684,-1.4684,-1.4679,-1.4677,0,0,0,-1.4666,-1.4666,-1.4667,-1.4668,-1.4672,-1.4677,-1.4679,-1.4681,-1.4683,-1.4686,-1.4686,-1.4684,-1.4684,-1.4679,-1.4677,-1.4675,0,0,0,-1.4663,-1.4662,-1.4667,-1.4666,-1.4671,-1.4674,-1.4679,-1.4681,-1.4683,-1.4686,-1.4684,-1.4683,-1.4679,-1.4678,-1.4675,-1.4673,-1.4672,0,0,-1.466,-1.4662,-1.4662,-1.4666,-1.4667,-1.4673,-1.4673,-1.4678,-1.468,-1.4682,-1.4682,-1.4679,-1.4677,-1.4675,-1.4665,-1.4664,0,0,0,-1.466,-1.466,-1.4661,-1.4663,-1.4666,-1.4669,-1.4674,-1.4675,-1.4676,-1.4681,-1.4677,-1.4677,-1.4675,-1.4674,-1.4674,-1.4672,-1.4683,-1.4683,-1.4683,-1.4652,-1.4655,-1.4655,-1.466,-1.4661,-1.4665,-1.4666,-1.4669,-1.4672,-1.4671,-1.4672,-1.4665,-1.4664,-1.4663,-1.4662,-1.467,-1.467,-1.467,-1.467,-1.4648,-1.4648,-1.4652,-1.4653,-1.4656,-1.4657,-1.466,-1.4662,-1.4662,-1.4665,-1.4665,-1.4668,-1.4662,-1.4661,-1.467,-1.467,-1.467,-1.467,-1.467,-1.4643,-1.4644,-1.4646,-1.4648,-1.4649,-1.4652,-1.4652,-1.4655,-1.4657,-1.4656,-1.4657,-1.4657,-1.4657,-1.4656,-1.4656,-1.4656,-1.4656,-1.4656,-1.4656,-1.4638,-1.464,-1.464,-1.4643,-1.4643,-1.4645,-1.4648,-1.4648,-1.4649,-1.4651,-1.4651,-1.4653,-1.4661,-1.4663,-1.4656,-1.4656,-1.4656,-1.4656,-1.4656,-1.4634,-1.4635,-1.4635,-1.4636,-1.4638,-1.4638,-1.4641,-1.4641,-1.4641,-1.4641,-1.4643,-1.4648,-1.465,-1.4651,-1.4652,-1.4643,-1.4643,-1.4643,-1.4643,-1.463,-1.4631,-1.4631,-1.4631,-1.4632,-1.4634,-1.4633,-1.4634,-1.4635,-1.4635,-1.4637,-1.4639,-1.464,-1.4641,-1.4642,-1.4643,-1.4632,-1.4632,-1.4632,-1.4627,-1.4628,-1.4627,-1.4629,-1.463,-1.4631,-1.4629,-1.4628,-1.463,-1.4632,-1.4635,-1.4636,-1.4639,-1.464,-1.4643,-1.4644,-1.4647,0,0]},{"header":{"parameterUnit":"m.s-1","parameterCategory":1,"la1":30.2992,"la2":30.254,"lo1":-89.0895,"lo2":-89.0443,"dy":0.0025,"dx":0.0025,"nx":19,"ny":19,"refTime":"2026-05-09T21:00:00:Z","depth":0,"parameterNumber":3,"parameterNumberName":"V-component_of_WINDS"},"data":[0,0,0,1.1754,1.1755,1.1787,1.1787,1.1843,1.1844,0,0,0,0,0,0,0,0,0,0,0,1.1755,1.1756,1.1754,1.1755,1.1787,1.1787,1.1843,1.1844,0,0,0,0,0,0,0,0,0,0,0,1.1755,1.1755,1.1756,1.1755,1.1787,1.1787,1.1843,1.1813,0,0,0,0,0,0,0,0,0,0,1.1779,1.1791,1.1755,1.1756,1.1755,1.1787,1.1787,1.1811,1.1815,1.1836,0,1.1857,0,1.1851,1.1849,1.1849,0,0,0,1.1747,1.1788,1.1787,1.1757,1.1756,1.1787,1.177,1.1813,1.1817,1.184,1.1858,1.186,1.1852,1.1849,1.1849,1.1993,1.1994,0,0,1.1746,1.1767,1.1784,1.179,1.1787,1.1769,1.1771,1.1815,1.1836,1.1858,1.1861,1.1853,1.185,1.185,1.1992,1.1993,0,0,0,1.1746,1.1766,1.1763,1.1788,1.1793,1.177,1.1773,1.1834,1.1831,1.1861,1.1854,1.185,1.1851,1.1991,1.1992,1.2064,0,0,0,1.1744,1.1766,1.1763,1.1776,1.1792,1.1814,1.1791,1.1828,1.1833,1.1854,1.185,1.1852,1.199,1.1992,1.206,1.2096,0,0,0,1.1749,1.1766,1.1774,1.1777,1.1791,1.1813,1.1812,1.1829,1.1829,1.1849,1.1852,1.1989,1.1991,1.2056,1.2089,1.2139,0,0,0,1.1761,1.1839,1.1776,1.1859,1.1791,1.1856,1.1812,1.1859,1.1885,1.185,1.199,1.1992,1.2054,1.2085,1.2135,1.2187,1.221,0,0,1.1871,1.1853,1.19,1.1844,1.1926,1.185,1.1941,1.1946,1.1928,1.1972,1.1975,1.2061,1.2088,1.2138,1.2329,1.2347,0,0,0,1.1942,1.1976,1.1993,1.2018,1.2021,1.2027,1.2014,1.2015,1.2051,1.1955,1.2091,1.2107,1.2135,1.2159,1.2175,1.2198,1.2004,1.2003,1.2003,1.2131,1.2102,1.2177,1.2152,1.2176,1.216,1.2177,1.2175,1.2141,1.2173,1.2187,1.2306,1.2335,1.2346,1.2371,1.221,1.2211,1.2211,1.2211,1.229,1.2334,1.2282,1.2338,1.2306,1.2352,1.2338,1.2311,1.2349,1.2294,1.2318,1.2262,1.2367,1.2387,1.2216,1.2215,1.2215,1.2214,1.2214,1.2412,1.2428,1.2426,1.2456,1.2482,1.2452,1.249,1.2459,1.2432,1.2455,1.2466,1.2465,1.2461,1.2461,1.2462,1.2462,1.2463,1.2463,1.2463,1.2542,1.2536,1.2571,1.2578,1.2588,1.2597,1.2578,1.2587,1.2589,1.2564,1.2564,1.2527,1.2382,1.2348,1.2469,1.2468,1.2467,1.2467,1.2466,1.2718,1.2672,1.2727,1.2737,1.274,1.2767,1.2725,1.2745,1.2748,1.2767,1.2722,1.262,1.26,1.2587,1.2559,1.2728,1.2728,1.2728,1.2728,1.2824,1.2808,1.2856,1.2873,1.2885,1.2852,1.2913,1.2897,1.2874,1.2873,1.2843,1.2802,1.279,1.2777,1.276,1.2733,1.2943,1.2943,1.2943,1.2931,1.2915,1.2974,1.2949,1.2947,1.2947,1.3003,1.3024,1.2987,1.2951,1.2872,1.2863,1.2795,1.2775,1.2742,1.2716,1.2666,0,0]}]]